This is the latest recevied weather packets stored in our database for station/object KB1RMA-13. If no packets are shown the sender has not sent any weather packets the latest 10 day(s).
| Time | Temp. | Humidity | Pressure | Rain* | Wind** | Luminosity | Snow |
|---|---|---|---|---|---|---|---|
| 1777843346 | 11.11° C | 42% | 1006 hPa | 0 mm | - | 73 W/m² | - |
| 1777843043 | 11.11° C | 41% | 1005.6 hPa | 0 mm | - | 92 W/m² | - |
| 1777842739 | 11.67° C | 41% | 1005.3 hPa | 0 mm | - | 145 W/m² | - |
| 1777842435 | 11.67° C | 43% | 1005.4 hPa | 0 mm | - | 226 W/m² | - |
| 1777842133 | 11.11° C | 42% | 1005.4 hPa | 0 mm | - | 117 W/m² | - |
| 1777841828 | 11.11° C | 46% | 1005.3 hPa | 0 mm | - | 92 W/m² | - |
| 1777841524 | 11.11° C | 45% | 1005.3 hPa | 0 mm | - | 88 W/m² | - |
| 1777841221 | 11.11° C | 46% | 1005.3 hPa | 0 mm | - | 87 W/m² | - |
| 1777840919 | 11.67° C | 44% | 1005.3 hPa | 0 mm | - | 135 W/m² | - |
| 1777840615 | 11.67° C | 45% | 1005.2 hPa | 0 mm | - | 381 W/m² | - |
| 1777840313 | 11.67° C | 45% | 1005.1 hPa | 0 mm | - | 187 W/m² | - |
| 1777840010 | 11.67° C | 44% | 1005.5 hPa | 0 mm | - | 155 W/m² | - |
| 1777839708 | 11.67° C | 43% | 1005.1 hPa | 0 mm | - | 128 W/m² | - |
| 1777839406 | 12.78° C | 44% | 1005.2 hPa | 0 mm | - | 306 W/m² | - |
| 1777839103 | 12.78° C | 44% | 1005.2 hPa | 0 mm | - | 582 W/m² | - |
| 1777838799 | 11.67° C | 46% | 1005.3 hPa | 0 mm | - | 524 W/m² | - |
| 1777838495 | 12.22° C | 46% | 1005.5 hPa | 0 mm | - | 169 W/m² | - |
| 1777838193 | 11.67° C | 47% | 1005.4 hPa | 0 mm | - | 180 W/m² | - |
| 1777837890 | 12.22° C | 47% | 1005.3 hPa | 0 mm | - | 210 W/m² | - |
| 1777837587 | 12.22° C | 47% | 1005.5 hPa | 0 mm | - | 237 W/m² | - |
| 1777837281 | 12.78° C | 44% | 1005.7 hPa | 0 mm | - | 220 W/m² | - |
| 1777836979 | 13.33° C | 45% | 1005.8 hPa | 0 mm | - | 721 W/m² | - |
| 1777836674 | 12.78° C | 47% | 1005.6 hPa | 0 mm | - | 667 W/m² | - |
| 1777836370 | 12.78° C | 45% | 1005.8 hPa | 0 mm | - | 481 W/m² | - |
| 1777836066 | 12.78° C | 46% | 1005.7 hPa | 0 mm | - | 860 W/m² | - |
* Rain latest hour (hover to see other rain measurements)
** Current wind speed in m/s (hover to see current wind gust speed)